owner,sensor,date,latitude,longitude,relative_humidity,qcFlag 
DISL,ioos:station:DISL:KATA:1,2019-07-01T00:56:00Z,30.2583,-88.2131,75.0,11111222 
DISL,ioos:station:DISL:KATA:1,2019-07-01T01:56:00Z,30.2583,-88.2131,73.69,11111222 
DISL,ioos:station:DISL:KATA:1,2019-07-01T02:56:00Z,30.2583,-88.2131,73.01,11111222 
DISL,ioos:station:DISL:KATA:1,2019-07-01T03:56:00Z,30.2583,-88.2131,73.62,11111222 
DISL,ioos:station:DISL:KATA:1,2019-07-01T04:56:00Z,30.2583,-88.2131,73.92,11111222 
DISL,ioos:station:DISL:KATA:1,2019-07-01T05:56:00Z,30.2583,-88.2131,70.91,11111222 
DISL,ioos:station:DISL:KATA:1,2019-07-01T06:56:00Z,30.2583,-88.2131,69.99,11111222 
DISL,ioos:station:DISL:KATA:1,2019-07-01T07:56:00Z,30.2583,-88.2131,75.21,11111222 
DISL,ioos:station:DISL:KATA:1,2019-07-01T08:56:00Z,30.2583,-88.2131,75.99,11111222 
DISL,ioos:station:DISL:KATA:1,2019-07-01T09:56:00Z,30.2583,-88.2131,76.57,11111222 
DISL,ioos:station:DISL:KATA:1,2019-07-01T10:57:00Z,30.2583,-88.2131,74.3,11111222 
DISL,ioos:station:DISL:KATA:1,2019-07-01T12:56:00Z,30.2583,-88.2131,76.47,11111222 
DISL,ioos:station:DISL:KATA:1,2019-07-01T13:56:00Z,30.2583,-88.2131,67.48,11111222 
DISL,ioos:station:DISL:KATA:1,2019-07-01T16:56:00Z,30.2583,-88.2131,70.41,11111222 
DISL,ioos:station:DISL:KATA:1,2019-07-01T17:56:00Z,30.2583,-88.2131,72.2,11111222 
DISL,ioos:station:DISL:KATA:1,2019-07-01T18:56:00Z,30.2583,-88.2131,67.93,11111222 
DISL,ioos:station:DISL:KATA:1,2019-07-01T19:56:00Z,30.2583,-88.2131,66.24,11111222 
DISL,ioos:station:DISL:KATA:1,2019-07-01T20:56:00Z,30.2583,-88.2131,66.78,11111222 
DISL,ioos:station:DISL:KATA:1,2019-07-01T21:56:00Z,30.2583,-88.2131,66.31,11111222 
DISL,ioos:station:DISL:KATA:1,2019-07-01T22:56:00Z,30.2583,-88.2131,66.99,11111222 
DISL,ioos:station:DISL:KATA:1,2019-07-01T23:56:00Z,30.2583,-88.2131,64.86,11111222 
DISL,ioos:station:DISL:KATA:1,2019-07-02T00:56:00Z,30.2583,-88.2131,67.14,11111222 
DISL,ioos:station:DISL:KATA:1,2019-07-02T01:56:00Z,30.2583,-88.2131,69.07,11111222 
DISL,ioos:station:DISL:KATA:1,2019-07-02T02:56:00Z,30.2583,-88.2131,70.8,11111222 
DISL,ioos:station:DISL:KATA:1,2019-07-02T03:56:00Z,30.2583,-88.2131,77.79,11111222 
DISL,ioos:station:DISL:KATA:1,2019-07-02T04:56:00Z,30.2583,-88.2131,79.32,11111222 
DISL,ioos:station:DISL:KATA:1,2019-07-02T05:56:00Z,30.2583,-88.2131,75.92,11111222 
DISL,ioos:station:DISL:KATA:1,2019-07-02T06:56:00Z,30.2583,-88.2131,77.11,11111222 
DISL,ioos:station:DISL:KATA:1,2019-07-02T07:56:00Z,30.2583,-88.2131,82.6,11111222 
DISL,ioos:station:DISL:KATA:1,2019-07-02T08:56:00Z,30.2583,-88.2131,82.6,11111222 
DISL,ioos:station:DISL:KATA:1,2019-07-02T09:56:00Z,30.2583,-88.2131,83.5,11111222 
DISL,ioos:station:DISL:KATA:1,2019-07-02T10:56:00Z,30.2583,-88.2131,81.4,11111222 
DISL,ioos:station:DISL:KATA:1,2019-07-02T11:56:00Z,30.2583,-88.2131,83.7,11111222 
DISL,ioos:station:DISL:KATA:1,2019-07-02T12:56:00Z,30.2583,-88.2131,82.7,11111222 
DISL,ioos:station:DISL:KATA:1,2019-07-02T13:56:00Z,30.2583,-88.2131,84.9,11111222 
DISL,ioos:station:DISL:KATA:1,2019-07-02T14:56:00Z,30.2583,-88.2131,79.55,11111222 
DISL,ioos:station:DISL:KATA:1,2019-07-02T15:56:00Z,30.2583,-88.2131,72.59,11111222 
DISL,ioos:station:DISL:KATA:1,2019-07-02T16:56:00Z,30.2583,-88.2131,68.34,11111222 
DISL,ioos:station:DISL:KATA:1,2019-07-02T17:56:00Z,30.2583,-88.2131,66.64,11111222 
DISL,ioos:station:DISL:KATA:1,2019-07-02T18:56:00Z,30.2583,-88.2131,66.98,11111222 
DISL,ioos:station:DISL:KATA:1,2019-07-02T19:56:00Z,30.2583,-88.2131,71.77,11111222 
DISL,ioos:station:DISL:KATA:1,2019-07-02T20:56:00Z,30.2583,-88.2131,69.13,11111222 
DISL,ioos:station:DISL:KATA:1,2019-07-02T21:56:00Z,30.2583,-88.2131,66.55,11111222 
DISL,ioos:station:DISL:KATA:1,2019-07-02T22:56:00Z,30.2583,-88.2131,69.44,11111222 
DISL,ioos:station:DISL:KATA:1,2019-07-02T23:56:00Z,30.2583,-88.2131,71.71,11111222 
DISL,ioos:station:DISL:KATA:1,2019-07-03T00:56:00Z,30.2583,-88.2131,75.41,11111222 
DISL,ioos:station:DISL:KATA:1,2019-07-03T01:56:00Z,30.2583,-88.2131,75.04,11111222 
DISL,ioos:station:DISL:KATA:1,2019-07-03T02:56:00Z,30.2583,-88.2131,77.52,11111222 
DISL,ioos:station:DISL:KATA:1,2019-07-03T03:56:00Z,30.2583,-88.2131,73.08,11111222 
DISL,ioos:station:DISL:KATA:1,2019-07-03T04:56:00Z,30.2583,-88.2131,74.97,11111222 
DISL,ioos:station:DISL:KATA:1,2019-07-03T05:56:00Z,30.2583,-88.2131,76.87,11111222 
DISL,ioos:station:DISL:KATA:1,2019-07-03T06:56:00Z,30.2583,-88.2131,83.8,11111222 
DISL,ioos:station:DISL:KATA:1,2019-07-03T07:56:00Z,30.2583,-88.2131,85.1,11111222 
DISL,ioos:station:DISL:KATA:1,2019-07-03T08:56:00Z,30.2583,-88.2131,82.9,11111222 
DISL,ioos:station:DISL:KATA:1,2019-07-03T09:56:00Z,30.2583,-88.2131,76.16,11111222 
DISL,ioos:station:DISL:KATA:1,2019-07-03T10:56:00Z,30.2583,-88.2131,73.89,11111222 
DISL,ioos:station:DISL:KATA:1,2019-07-03T11:56:00Z,30.2583,-88.2131,75.48,11111222 
DISL,ioos:station:DISL:KATA:1,2019-07-03T12:56:00Z,30.2583,-88.2131,75.45,11111222 
DISL,ioos:station:DISL:KATA:1,2019-07-03T13:56:00Z,30.2583,-88.2131,74.03,11111222 
DISL,ioos:station:DISL:KATA:1,2019-07-03T14:56:00Z,30.2583,-88.2131,71.11,11111222 
DISL,ioos:station:DISL:KATA:1,2019-07-03T15:56:00Z,30.2583,-88.2131,69.04,11111222 
DISL,ioos:station:DISL:KATA:1,2019-07-03T16:56:00Z,30.2583,-88.2131,67.12,11111222 
DISL,ioos:station:DISL:KATA:1,2019-07-03T17:56:00Z,30.2583,-88.2131,61.69,11111222 
DISL,ioos:station:DISL:KATA:1,2019-07-03T18:56:00Z,30.2583,-88.2131,68.51,11111222 
DISL,ioos:station:DISL:KATA:1,2019-07-03T19:56:00Z,30.2583,-88.2131,67.8,11111222 
DISL,ioos:station:DISL:KATA:1,2019-07-03T20:56:00Z,30.2583,-88.2131,70.62,11111222 
DISL,ioos:station:DISL:KATA:1,2019-07-03T21:56:00Z,30.2583,-88.2131,70.45,11111222 
DISL,ioos:station:DISL:KATA:1,2019-07-03T22:56:00Z,30.2583,-88.2131,71.13,11111222 
DISL,ioos:station:DISL:KATA:1,2019-07-03T23:56:00Z,30.2583,-88.2131,70.76,11111222 
DISL,ioos:station:DISL:KATA:1,2019-07-04T00:56:00Z,30.2583,-88.2131,70.22,11111222 
DISL,ioos:station:DISL:KATA:1,2019-07-04T01:56:00Z,30.2583,-88.2131,71.99,11111222 
DISL,ioos:station:DISL:KATA:1,2019-07-04T02:56:00Z,30.2583,-88.2131,76.43,11111222 
DISL,ioos:station:DISL:KATA:1,2019-07-04T03:56:00Z,30.2583,-88.2131,78.94,11111222 
DISL,ioos:station:DISL:KATA:1,2019-07-04T04:56:00Z,30.2583,-88.2131,79.55,11111222 
DISL,ioos:station:DISL:KATA:1,2019-07-04T05:56:00Z,30.2583,-88.2131,80.3,11111222 
DISL,ioos:station:DISL:KATA:1,2019-07-04T06:56:00Z,30.2583,-88.2131,79.89,11111222 
DISL,ioos:station:DISL:KATA:1,2019-07-04T07:56:00Z,30.2583,-88.2131,82.3,11111222 
DISL,ioos:station:DISL:KATA:1,2019-07-04T08:56:00Z,30.2583,-88.2131,85.7,11111222 
DISL,ioos:station:DISL:KATA:1,2019-07-04T09:56:00Z,30.2583,-88.2131,84.3,11111222 
DISL,ioos:station:DISL:KATA:1,2019-07-04T10:56:00Z,30.2583,-88.2131,84.2,11111222 
DISL,ioos:station:DISL:KATA:1,2019-07-04T11:56:00Z,30.2583,-88.2131,80.3,11111222 
DISL,ioos:station:DISL:KATA:1,2019-07-04T12:56:00Z,30.2583,-88.2131,76.81,11111222 
DISL,ioos:station:DISL:KATA:1,2019-07-04T13:56:00Z,30.2583,-88.2131,73.38,11111222 
DISL,ioos:station:DISL:KATA:1,2019-07-04T14:56:00Z,30.2583,-88.2131,71.02,11111222 
DISL,ioos:station:DISL:KATA:1,2019-07-04T15:56:00Z,30.2583,-88.2131,69.05,11111222 
DISL,ioos:station:DISL:KATA:1,2019-07-04T16:56:00Z,30.2583,-88.2131,73.63,11111222 
DISL,ioos:station:DISL:KATA:1,2019-07-04T17:56:00Z,30.2583,-88.2131,69.66,11111222 
DISL,ioos:station:DISL:KATA:1,2019-07-04T18:56:00Z,30.2583,-88.2131,65.56,11111222 
DISL,ioos:station:DISL:KATA:1,2019-07-04T19:56:00Z,30.2583,-88.2131,67.08,11111222 
DISL,ioos:station:DISL:KATA:1,2019-07-04T20:56:00Z,30.2583,-88.2131,66.88,11111222 
DISL,ioos:station:DISL:KATA:1,2019-07-04T21:56:00Z,30.2583,-88.2131,67.32,11111222 
DISL,ioos:station:DISL:KATA:1,2019-07-04T22:56:00Z,30.2583,-88.2131,69.29,11111222 
DISL,ioos:station:DISL:KATA:1,2019-07-04T23:56:00Z,30.2583,-88.2131,68.61,11111222 
DISL,ioos:station:DISL:KATA:1,2019-07-05T00:56:00Z,30.2583,-88.2131,68.65,11111222 
DISL,ioos:station:DISL:KATA:1,2019-07-05T01:56:00Z,30.2583,-88.2131,71.78,11111222 
DISL,ioos:station:DISL:KATA:1,2019-07-05T02:56:00Z,30.2583,-88.2131,73.61,11111222 
DISL,ioos:station:DISL:KATA:1,2019-07-05T03:56:00Z,30.2583,-88.2131,74.9,11111222 
DISL,ioos:station:DISL:KATA:1,2019-07-05T04:56:00Z,30.2583,-88.2131,73.68,11111222 
DISL,ioos:station:DISL:KATA:1,2019-07-05T05:56:00Z,30.2583,-88.2131,76.6,11111222 
DISL,ioos:station:DISL:KATA:1,2019-07-05T06:56:00Z,30.2583,-88.2131,76.09,11111222 
DISL,ioos:station:DISL:KATA:1,2019-07-05T07:56:00Z,30.2583,-88.2131,79.55,11111222 
DISL,ioos:station:DISL:KATA:1,2019-07-05T08:56:00Z,30.2583,-88.2131,76.87,11111222 
DISL,ioos:station:DISL:KATA:1,2019-07-05T09:56:00Z,30.2583,-88.2131,80.2,11111222 
DISL,ioos:station:DISL:KATA:1,2019-07-05T10:56:00Z,30.2583,-88.2131,82.0,11111222 
DISL,ioos:station:DISL:KATA:1,2019-07-05T11:56:00Z,30.2583,-88.2131,80.2,11111222 
DISL,ioos:station:DISL:KATA:1,2019-07-05T12:56:00Z,30.2583,-88.2131,79.18,11111222 
DISL,ioos:station:DISL:KATA:1,2019-07-05T13:56:00Z,30.2583,-88.2131,74.26,11111222 
DISL,ioos:station:DISL:KATA:1,2019-07-05T14:56:00Z,30.2583,-88.2131,74.24,11111222 
DISL,ioos:station:DISL:KATA:1,2019-07-05T15:56:00Z,30.2583,-88.2131,76.44,11111222 
DISL,ioos:station:DISL:KATA:1,2019-07-05T16:56:00Z,30.2583,-88.2131,71.83,11111222 
DISL,ioos:station:DISL:KATA:1,2019-07-05T17:56:00Z,30.2583,-88.2131,65.56,11111222 
DISL,ioos:station:DISL:KATA:1,2019-07-05T19:56:00Z,30.2583,-88.2131,59.56,11111222 
DISL,ioos:station:DISL:KATA:1,2019-07-05T20:56:00Z,30.2583,-88.2131,71.66,11111222 
DISL,ioos:station:DISL:KATA:1,2019-07-05T21:56:00Z,30.2583,-88.2131,67.69,11111222 
DISL,ioos:station:DISL:KATA:1,2019-07-05T22:56:00Z,30.2583,-88.2131,63.66,11111222 
DISL,ioos:station:DISL:KATA:1,2019-07-05T23:56:00Z,30.2583,-88.2131,68.95,11111222 
DISL,ioos:station:DISL:KATA:1,2019-07-06T00:56:00Z,30.2583,-88.2131,75.56,11111222 
DISL,ioos:station:DISL:KATA:1,2019-07-06T01:56:00Z,30.2583,-88.2131,72.82,11111222 
DISL,ioos:station:DISL:KATA:1,2019-07-06T02:56:00Z,30.2583,-88.2131,76.89,11111222 
DISL,ioos:station:DISL:KATA:1,2019-07-06T03:56:00Z,30.2583,-88.2131,75.67,11111222 
DISL,ioos:station:DISL:KATA:1,2019-07-06T04:56:00Z,30.2583,-88.2131,74.69,11111222 
DISL,ioos:station:DISL:KATA:1,2019-07-06T05:56:00Z,30.2583,-88.2131,70.45,11111222 
DISL,ioos:station:DISL:KATA:1,2019-07-06T06:56:00Z,30.2583,-88.2131,70.39,11111222 
DISL,ioos:station:DISL:KATA:1,2019-07-06T07:56:00Z,30.2583,-88.2131,72.36,11111222 
DISL,ioos:station:DISL:KATA:1,2019-07-06T08:57:00Z,30.2583,-88.2131,70.53,11111222 
DISL,ioos:station:DISL:KATA:1,2019-07-06T09:56:00Z,30.2583,-88.2131,72.9,11111222 
DISL,ioos:station:DISL:KATA:1,2019-07-06T10:57:00Z,30.2583,-88.2131,76.67,11111222 
DISL,ioos:station:DISL:KATA:1,2019-07-06T11:57:00Z,30.2583,-88.2131,78.23,11111222 
DISL,ioos:station:DISL:KATA:1,2019-07-06T12:57:00Z,30.2583,-88.2131,78.7,11111222 
DISL,ioos:station:DISL:KATA:1,2019-07-06T13:57:00Z,30.2583,-88.2131,74.69,11111222 
DISL,ioos:station:DISL:KATA:1,2019-07-06T14:57:00Z,30.2583,-88.2131,70.44,11111222 
DISL,ioos:station:DISL:KATA:1,2019-07-06T15:57:00Z,30.2583,-88.2131,69.36,11111222 
DISL,ioos:station:DISL:KATA:1,2019-07-06T16:57:00Z,30.2583,-88.2131,68.58,11111222 
DISL,ioos:station:DISL:KATA:1,2019-07-06T17:57:00Z,30.2583,-88.2131,61.9,11111222 
DISL,ioos:station:DISL:KATA:1,2019-07-06T18:57:00Z,30.2583,-88.2131,64.98,11111222 
DISL,ioos:station:DISL:KATA:1,2019-07-06T19:57:00Z,30.2583,-88.2131,67.52,11111222 
DISL,ioos:station:DISL:KATA:1,2019-07-06T20:57:00Z,30.2583,-88.2131,63.12,11111222 
DISL,ioos:station:DISL:KATA:1,2019-07-06T21:57:00Z,30.2583,-88.2131,67.05,11111222 
DISL,ioos:station:DISL:KATA:1,2019-07-06T22:57:00Z,30.2583,-88.2131,68.0,11111222 
DISL,ioos:station:DISL:KATA:1,2019-07-06T23:57:00Z,30.2583,-88.2131,68.78,11111222 
DISL,ioos:station:DISL:KATA:1,2019-07-07T00:57:00Z,30.2583,-88.2131,72.78,11111222 
DISL,ioos:station:DISL:KATA:1,2019-07-07T01:57:00Z,30.2583,-88.2131,73.66,11111222 
DISL,ioos:station:DISL:KATA:1,2019-07-07T02:57:00Z,30.2583,-88.2131,77.09,11111222 
DISL,ioos:station:DISL:KATA:1,2019-07-07T03:57:00Z,30.2583,-88.2131,76.38,11111222 
DISL,ioos:station:DISL:KATA:1,2019-07-07T04:57:00Z,30.2583,-88.2131,77.53,11111222 
DISL,ioos:station:DISL:KATA:1,2019-07-07T05:57:00Z,30.2583,-88.2131,80.0,11111222 
DISL,ioos:station:DISL:KATA:1,2019-07-07T06:57:00Z,30.2583,-88.2131,78.18,11111222 
DISL,ioos:station:DISL:KATA:1,2019-07-07T07:57:00Z,30.2583,-88.2131,70.28,11111222 
DISL,ioos:station:DISL:KATA:1,2019-07-07T08:57:00Z,30.2583,-88.2131,67.54,11111222 
DISL,ioos:station:DISL:KATA:1,2019-07-07T09:57:00Z,30.2583,-88.2131,60.79,11111222 
DISL,ioos:station:DISL:KATA:1,2019-07-07T10:57:00Z,30.2583,-88.2131,61.82,11111222 
DISL,ioos:station:DISL:KATA:1,2019-07-07T11:57:00Z,30.2583,-88.2131,67.51,11111222 
DISL,ioos:station:DISL:KATA:1,2019-07-07T12:57:00Z,30.2583,-88.2131,69.51,11111222 
DISL,ioos:station:DISL:KATA:1,2019-07-07T13:57:00Z,30.2583,-88.2131,69.67,11111222 
DISL,ioos:station:DISL:KATA:1,2019-07-07T14:57:00Z,30.2583,-88.2131,67.26,11111222 
DISL,ioos:station:DISL:KATA:1,2019-07-07T15:57:00Z,30.2583,-88.2131,60.54,11111222 
DISL,ioos:station:DISL:KATA:1,2019-07-07T16:57:00Z,30.2583,-88.2131,53.73,11111222 
DISL,ioos:station:DISL:KATA:1,2019-07-07T17:57:00Z,30.2583,-88.2131,49.29,11111222 
DISL,ioos:station:DISL:KATA:1,2019-07-07T18:57:00Z,30.2583,-88.2131,67.66,11111222 
DISL,ioos:station:DISL:KATA:1,2019-07-07T19:57:00Z,30.2583,-88.2131,70.85,11111222 
DISL,ioos:station:DISL:KATA:1,2019-07-07T20:57:00Z,30.2583,-88.2131,67.69,11111222 
DISL,ioos:station:DISL:KATA:1,2019-07-07T21:57:00Z,30.2583,-88.2131,65.66,11111222 
DISL,ioos:station:DISL:KATA:1,2019-07-07T22:57:00Z,30.2583,-88.2131,67.9,11111222 
DISL,ioos:station:DISL:KATA:1,2019-07-07T23:57:00Z,30.2583,-88.2131,67.56,11111222 
DISL,ioos:station:DISL:KATA:1,2019-07-08T00:57:00Z,30.2583,-88.2131,73.39,11111222 
DISL,ioos:station:DISL:KATA:1,2019-07-08T01:57:00Z,30.2583,-88.2131,74.88,11111222 
DISL,ioos:station:DISL:KATA:1,2019-07-08T02:57:00Z,30.2583,-88.2131,59.5,11111222 
DISL,ioos:station:DISL:KATA:1,2019-07-08T03:57:00Z,30.2583,-88.2131,61.54,11111222 
DISL,ioos:station:DISL:KATA:1,2019-07-08T04:57:00Z,30.2583,-88.2131,62.09,11111222 
DISL,ioos:station:DISL:KATA:1,2019-07-08T05:57:00Z,30.2583,-88.2131,65.68,11111222 
DISL,ioos:station:DISL:KATA:1,2019-07-08T06:57:00Z,30.2583,-88.2131,60.83,11111222 
DISL,ioos:station:DISL:KATA:1,2019-07-08T07:57:00Z,30.2583,-88.2131,64.29,11111222 
DISL,ioos:station:DISL:KATA:1,2019-07-08T08:57:00Z,30.2583,-88.2131,66.6,11111222 
DISL,ioos:station:DISL:KATA:1,2019-07-08T09:57:00Z,30.2583,-88.2131,67.99,11111222 
DISL,ioos:station:DISL:KATA:1,2019-07-08T10:57:00Z,30.2583,-88.2131,66.09,11111222 
DISL,ioos:station:DISL:KATA:1,2019-07-08T11:57:00Z,30.2583,-88.2131,66.33,11111222 
DISL,ioos:station:DISL:KATA:1,2019-07-08T12:57:00Z,30.2583,-88.2131,71.85,11111222 
DISL,ioos:station:DISL:KATA:1,2019-07-08T13:57:00Z,30.2583,-88.2131,68.19,11111222 
DISL,ioos:station:DISL:KATA:1,2019-07-08T14:57:00Z,30.2583,-88.2131,63.4,11111222 
DISL,ioos:station:DISL:KATA:1,2019-07-08T15:57:00Z,30.2583,-88.2131,60.31,11111222 
DISL,ioos:station:DISL:KATA:1,2019-07-08T16:56:00Z,30.2583,-88.2131,58.2,11111222 
DISL,ioos:station:DISL:KATA:1,2019-07-08T17:56:00Z,30.2583,-88.2131,59.46,11111222 
DISL,ioos:station:DISL:KATA:1,2019-07-08T18:56:00Z,30.2583,-88.2131,66.71,11111222 
DISL,ioos:station:DISL:KATA:1,2019-07-08T19:56:00Z,30.2583,-88.2131,68.14,11111222 
DISL,ioos:station:DISL:KATA:1,2019-07-08T20:56:00Z,30.2583,-88.2131,71.59,11111222 
DISL,ioos:station:DISL:KATA:1,2019-07-08T21:56:00Z,30.2583,-88.2131,71.97,11111222 
DISL,ioos:station:DISL:KATA:1,2019-07-08T22:56:00Z,30.2583,-88.2131,69.66,11111222 
DISL,ioos:station:DISL:KATA:1,2019-07-08T23:56:00Z,30.2583,-88.2131,69.28,11111222 
DISL,ioos:station:DISL:KATA:1,2019-07-09T00:56:00Z,30.2583,-88.2131,69.81,11111222 
DISL,ioos:station:DISL:KATA:1,2019-07-09T01:56:00Z,30.2583,-88.2131,69.84,11111222 
DISL,ioos:station:DISL:KATA:1,2019-07-09T02:56:00Z,30.2583,-88.2131,69.71,11111222 
DISL,ioos:station:DISL:KATA:1,2019-07-09T03:56:00Z,30.2583,-88.2131,66.21,11111222 
DISL,ioos:station:DISL:KATA:1,2019-07-09T04:56:00Z,30.2583,-88.2131,68.49,11111222 
DISL,ioos:station:DISL:KATA:1,2019-07-09T05:56:00Z,30.2583,-88.2131,69.88,11111222 
DISL,ioos:station:DISL:KATA:1,2019-07-09T06:56:00Z,30.2583,-88.2131,70.5,11111222 
DISL,ioos:station:DISL:KATA:1,2019-07-09T07:56:00Z,30.2583,-88.2131,70.13,11111222 
DISL,ioos:station:DISL:KATA:1,2019-07-09T08:56:00Z,30.2583,-88.2131,74.03,11111222 
DISL,ioos:station:DISL:KATA:1,2019-07-09T09:56:00Z,30.2583,-88.2131,78.67,11111222 
DISL,ioos:station:DISL:KATA:1,2019-07-09T10:56:00Z,30.2583,-88.2131,79.69,11111222 
DISL,ioos:station:DISL:KATA:1,2019-07-09T11:56:00Z,30.2583,-88.2131,80.0,11111222 
DISL,ioos:station:DISL:KATA:1,2019-07-09T12:56:00Z,30.2583,-88.2131,80.2,11111222 
DISL,ioos:station:DISL:KATA:1,2019-07-09T13:56:00Z,30.2583,-88.2131,80.7,11111222 
DISL,ioos:station:DISL:KATA:1,2019-07-09T14:56:00Z,30.2583,-88.2131,76.55,11111222 
DISL,ioos:station:DISL:KATA:1,2019-07-09T15:56:00Z,30.2583,-88.2131,71.86,11111222 
DISL,ioos:station:DISL:KATA:1,2019-07-09T16:56:00Z,30.2583,-88.2131,69.29,11111222 
DISL,ioos:station:DISL:KATA:1,2019-07-09T17:56:00Z,30.2583,-88.2131,63.32,11111222 
DISL,ioos:station:DISL:KATA:1,2019-07-09T18:56:00Z,30.2583,-88.2131,80.5,11111222 
DISL,ioos:station:DISL:KATA:1,2019-07-09T19:56:00Z,30.2583,-88.2131,72.18,11111222 
DISL,ioos:station:DISL:KATA:1,2019-07-09T20:56:00Z,30.2583,-88.2131,87.5,11111222 
DISL,ioos:station:DISL:KATA:1,2019-07-09T21:56:00Z,30.2583,-88.2131,89.3,11111222 
DISL,ioos:station:DISL:KATA:1,2019-07-09T22:56:00Z,30.2583,-88.2131,77.45,11111222 
DISL,ioos:station:DISL:KATA:1,2019-07-09T23:56:00Z,30.2583,-88.2131,80.3,11111222 
DISL,ioos:station:DISL:KATA:1,2019-07-10T00:56:00Z,30.2583,-88.2131,82.1,11111222 
DISL,ioos:station:DISL:KATA:1,2019-07-10T01:56:00Z,30.2583,-88.2131,82.8,11111222 
DISL,ioos:station:DISL:KATA:1,2019-07-10T02:56:00Z,30.2583,-88.2131,82.5,11111222 
DISL,ioos:station:DISL:KATA:1,2019-07-10T03:56:00Z,30.2583,-88.2131,80.7,11111222 
DISL,ioos:station:DISL:KATA:1,2019-07-10T04:56:00Z,30.2583,-88.2131,83.2,11111222 
DISL,ioos:station:DISL:KATA:1,2019-07-10T05:56:00Z,30.2583,-88.2131,81.3,11111222 
DISL,ioos:station:DISL:KATA:1,2019-07-10T06:56:00Z,30.2583,-88.2131,88.7,11111222 
DISL,ioos:station:DISL:KATA:1,2019-07-10T07:56:00Z,30.2583,-88.2131,87.7,11111222 
DISL,ioos:station:DISL:KATA:1,2019-07-10T08:56:00Z,30.2583,-88.2131,87.1,11111222 
DISL,ioos:station:DISL:KATA:1,2019-07-10T09:56:00Z,30.2583,-88.2131,83.6,11111222 
DISL,ioos:station:DISL:KATA:1,2019-07-10T10:56:00Z,30.2583,-88.2131,82.5,11111222 
DISL,ioos:station:DISL:KATA:1,2019-07-10T11:56:00Z,30.2583,-88.2131,82.1,11111222 
DISL,ioos:station:DISL:KATA:1,2019-07-10T12:56:00Z,30.2583,-88.2131,80.4,11111222 
DISL,ioos:station:DISL:KATA:1,2019-07-10T13:56:00Z,30.2583,-88.2131,84.8,11111222 
DISL,ioos:station:DISL:KATA:1,2019-07-10T14:56:00Z,30.2583,-88.2131,86.1,11111222 
DISL,ioos:station:DISL:KATA:1,2019-07-10T15:56:00Z,30.2583,-88.2131,86.6,11111222 
DISL,ioos:station:DISL:KATA:1,2019-07-10T16:56:00Z,30.2583,-88.2131,85.1,11111222 
DISL,ioos:station:DISL:KATA:1,2019-07-10T17:56:00Z,30.2583,-88.2131,81.6,11111222 
DISL,ioos:station:DISL:KATA:1,2019-07-10T18:56:00Z,30.2583,-88.2131,80.3,11111222 
DISL,ioos:station:DISL:KATA:1,2019-07-10T19:56:00Z,30.2583,-88.2131,84.8,11111222 
DISL,ioos:station:DISL:KATA:1,2019-07-10T20:56:00Z,30.2583,-88.2131,84.6,11111222 
DISL,ioos:station:DISL:KATA:1,2019-07-10T21:56:00Z,30.2583,-88.2131,80.1,11111222 
DISL,ioos:station:DISL:KATA:1,2019-07-10T22:56:00Z,30.2583,-88.2131,77.29,11111222 
DISL,ioos:station:DISL:KATA:1,2019-07-10T23:56:00Z,30.2583,-88.2131,84.6,11111222 
DISL,ioos:station:DISL:KATA:1,2019-07-11T00:56:00Z,30.2583,-88.2131,78.13,11111222 
DISL,ioos:station:DISL:KATA:1,2019-07-11T01:56:00Z,30.2583,-88.2131,83.9,11111222 
DISL,ioos:station:DISL:KATA:1,2019-07-11T02:56:00Z,30.2583,-88.2131,81.9,11111222 
DISL,ioos:station:DISL:KATA:1,2019-07-11T03:56:00Z,30.2583,-88.2131,80.3,11111222 
DISL,ioos:station:DISL:KATA:1,2019-07-11T04:56:00Z,30.2583,-88.2131,83.2,11111222 
DISL,ioos:station:DISL:KATA:1,2019-07-11T05:56:00Z,30.2583,-88.2131,83.7,11111222 
DISL,ioos:station:DISL:KATA:1,2019-07-11T06:56:00Z,30.2583,-88.2131,83.8,11111222 
DISL,ioos:station:DISL:KATA:1,2019-07-11T07:56:00Z,30.2583,-88.2131,86.9,11111222 
DISL,ioos:station:DISL:KATA:1,2019-07-11T08:56:00Z,30.2583,-88.2131,86.2,11111222 
DISL,ioos:station:DISL:KATA:1,2019-07-11T09:56:00Z,30.2583,-88.2131,84.5,11111222 
DISL,ioos:station:DISL:KATA:1,2019-07-11T10:56:00Z,30.2583,-88.2131,83.6,11111222 
DISL,ioos:station:DISL:KATA:1,2019-07-11T11:56:00Z,30.2583,-88.2131,86.6,11111222 
DISL,ioos:station:DISL:KATA:1,2019-07-11T12:56:00Z,30.2583,-88.2131,82.3,11111222 
DISL,ioos:station:DISL:KATA:1,2019-07-11T13:56:00Z,30.2583,-88.2131,76.64,11111222 
DISL,ioos:station:DISL:KATA:1,2019-07-11T14:56:00Z,30.2583,-88.2131,77.17,11111222 
DISL,ioos:station:DISL:KATA:1,2019-07-11T15:56:00Z,30.2583,-88.2131,78.96,11111222 
DISL,ioos:station:DISL:KATA:1,2019-07-11T16:56:00Z,30.2583,-88.2131,87.3,11111222 
DISL,ioos:station:DISL:KATA:1,2019-07-11T17:56:00Z,30.2583,-88.2131,75.45,11111222 
DISL,ioos:station:DISL:KATA:1,2019-07-11T18:56:00Z,30.2583,-88.2131,73.47,11111222 
DISL,ioos:station:DISL:KATA:1,2019-07-11T19:56:00Z,30.2583,-88.2131,74.49,11111222 
DISL,ioos:station:DISL:KATA:1,2019-07-11T20:56:00Z,30.2583,-88.2131,75.58,11111222 
DISL,ioos:station:DISL:KATA:1,2019-07-11T21:56:00Z,30.2583,-88.2131,75.64,11111222 
DISL,ioos:station:DISL:KATA:1,2019-07-11T22:56:00Z,30.2583,-88.2131,78.02,11111222 
DISL,ioos:station:DISL:KATA:1,2019-07-11T23:56:00Z,30.2583,-88.2131,77.14,11111222 
DISL,ioos:station:DISL:KATA:1,2019-07-12T00:56:00Z,30.2583,-88.2131,78.94,11111222 
DISL,ioos:station:DISL:KATA:1,2019-07-12T01:56:00Z,30.2583,-88.2131,76.47,11111222 
DISL,ioos:station:DISL:KATA:1,2019-07-12T02:56:00Z,30.2583,-88.2131,80.2,11111222 
DISL,ioos:station:DISL:KATA:1,2019-07-12T03:56:00Z,30.2583,-88.2131,78.98,11111222 
DISL,ioos:station:DISL:KATA:1,2019-07-12T04:56:00Z,30.2583,-88.2131,79.62,11111222 
DISL,ioos:station:DISL:KATA:1,2019-07-12T05:56:00Z,30.2583,-88.2131,74.81,11111222 
DISL,ioos:station:DISL:KATA:1,2019-07-12T06:56:00Z,30.2583,-88.2131,79.42,11111222 
DISL,ioos:station:DISL:KATA:1,2019-07-12T07:56:00Z,30.2583,-88.2131,78.16,11111222 
DISL,ioos:station:DISL:KATA:1,2019-07-12T08:56:00Z,30.2583,-88.2131,85.1,11111222 
DISL,ioos:station:DISL:KATA:1,2019-07-12T09:56:00Z,30.2583,-88.2131,76.06,11111222 
DISL,ioos:station:DISL:KATA:1,2019-07-12T10:56:00Z,30.2583,-88.2131,81.8,11111222 
DISL,ioos:station:DISL:KATA:1,2019-07-12T11:56:00Z,30.2583,-88.2131,86.8,11111222 
DISL,ioos:station:DISL:KATA:1,2019-07-12T12:56:00Z,30.2583,-88.2131,80.2,11111222 
DISL,ioos:station:DISL:KATA:1,2019-07-12T13:56:00Z,30.2583,-88.2131,77.1,11111222 
DISL,ioos:station:DISL:KATA:1,2019-07-12T14:56:00Z,30.2583,-88.2131,79.08,11111222 
DISL,ioos:station:DISL:KATA:1,2019-07-12T15:56:00Z,30.2583,-88.2131,77.56,11111222 
DISL,ioos:station:DISL:KATA:1,2019-07-12T16:56:00Z,30.2583,-88.2131,74.47,11111222 
DISL,ioos:station:DISL:KATA:1,2019-07-12T17:56:00Z,30.2583,-88.2131,71.85,11111222 
DISL,ioos:station:DISL:KATA:1,2019-07-12T18:56:00Z,30.2583,-88.2131,77.79,11111222 
DISL,ioos:station:DISL:KATA:1,2019-07-12T19:56:00Z,30.2583,-88.2131,75.61,11111222 
DISL,ioos:station:DISL:KATA:1,2019-07-12T20:56:00Z,30.2583,-88.2131,73.81,11111222 
DISL,ioos:station:DISL:KATA:1,2019-07-12T21:56:00Z,30.2583,-88.2131,76.65,11111222 
DISL,ioos:station:DISL:KATA:1,2019-07-12T22:56:00Z,30.2583,-88.2131,77.6,11111222 
DISL,ioos:station:DISL:KATA:1,2019-07-12T23:56:00Z,30.2583,-88.2131,80.6,11111222 
DISL,ioos:station:DISL:KATA:1,2019-07-13T00:56:00Z,30.2583,-88.2131,90.2,11111222 
DISL,ioos:station:DISL:KATA:1,2019-07-13T01:56:00Z,30.2583,-88.2131,84.1,11111222 